DW8923 Weather Reports


time (UTC)temp
F
wind
direction
speed
knots
gust
knots
rain 1hr
in
rain 24hr
in
rain mn
in
humidity
%
barometer
mb
20260506200042 60 312 3.5 10.4 0.00 0.00 0.00 84 1011.5
20260506194541 61 292 3.5 11.3 0.00 0.00 0.00 83 1011.3
20260506193040 62 320 3.5 10.4 0.00 0.00 0.00 83 1011.4
20260506191541 63 347 3.5 9.6 0.00 0.00 0.00 82 1011.5
20260506190039 64 246 2.6 7.8 0.00 0.00 0.00 83 1011.3
20260506184548 65 302 1.7 9.6 0.00 0.00 0.00 83 1011.1
20260506183051 66 301 2.6 12.2 0.00 0.00 0.00 81 1011.1
20260506181602 68 271 3.5 9.6 0.00 0.00 0.00 79 1010.9
20260506180036 69 308 0.9 7.8 0.00 0.00 0.00 80 1010.8
20260506174534 67 342 2.6 8.7 0.00 0.00 0.00 81 1010.6
20260506173052 67 98 0.9 4.3 0.00 0.00 0.00 83 1010.4
20260506171533 66 349 1.7 7.0 0.00 0.00 0.00 82 1010.3
20260506170035 65 12 2.6 8.7 0.00 0.00 0.00 84 1010.4
20260506164536 64 85 2.6 7.8 0.00 0.00 0.00 87 1010.2
20260506163030 61 339 1.7 7.0 0.00 0.00 0.00 92 1010.9
20260506161529 59 21 2.6 7.8 0.00 0.00 0.00 92 1010.5
20260506160029 59 315 1.7 9.6 0.00 0.00 0.00 92 1011.7
20260506154526 60 34 4.3 11.3 0.00 0.00 0.00 91 1012.1
20260506153023 61 287 2.6 14.8 0.00 0.00 0.00 92 1012.0
20260506151518 62 305 2.6 13.0 0.00 0.00 0.00 92 1012.0
20260506150015 63 312 1.7 9.6 0.00 0.00 0.00 92 1010.9
20260506144516 63 306 1.7 12.2 0.00 0.00 0.00 91 1009.9
20260506143009 65 329 3.5 11.3 0.00 0.00 0.00 90 1009.9
20260506141502 66 322 1.7 8.7 0.00 0.00 0.00 90 1009.3
20260506140106 67 55 0.9 9.6 0.00 0.00 0.00 89 1008.8
20260506134555 70 292 1.7 9.6 0.00 0.00 0.00 89 1008.9
20260506133052 73 69 0.9 2.6 0.00 0.00 0.00 94 1008.3
20260506131555 73 46 0.0 1.7 0.00 0.00 0.00 94 1008.2
20260506130048 73 15 0.0 2.6 0.00 0.00 0.00 94 1007.8
20260506124550 73 291 0.0 1.7 0.00 0.00 0.00 93 1007.8
20260506123047 73 200 0.0 0.0 0.00 0.00 0.00 93 1007.6
20260506121543 73 152 0.0 0.0 0.00 0.00 0.00 92 1007.4
20260506120043 73 152 0.0 0.0 0.00 0.00 0.00 92 1007.3
20260506114540 73 152 0.0 0.0 0.00 0.00 0.00 92 1007.2
20260506113042 74 152 0.0 0.0 0.00 0.00 0.00 92 1007.2
20260506111538 74 152 0.0 0.0 0.00 0.00 0.00 92 1007.3
20260506110037 74 199 0.0 2.6 0.00 0.00 0.00 92 1007.3
20260506104536 74 150 0.0 2.6 0.00 0.00 0.00 91 1007.3
20260506103034 74 148 0.9 2.6 0.00 0.00 0.00 91 1007.2
20260506101532 74 175 0.0 4.3 0.00 0.00 0.00 91 1007.0
20260506100034 75 146 0.9 4.3 0.00 0.00 0.00 91 1006.8
20260506094529 75 166 1.7 3.5 0.00 0.00 0.00 90 1006.7
20260506093027 75 127 1.7 4.3 0.00 0.00 0.00 90 1006.5
20260506091526 75 119 1.7 4.3 0.00 0.00 0.00 89 1006.4
20260506090029 75 161 1.7 5.2 0.00 0.00 0.00 89 1006.4
20260506084525 75 136 0.9 4.3 0.00 0.00 0.00 89 1006.2
20260506083024 75 166 0.0 7.0 0.00 0.00 0.00 89 1006.3
20260506081523 75 159 2.6 8.7 0.00 0.00 0.00 89 1006.3
20260506073020 75 143 2.6 9.6 0.00 0.00 0.00 89 1006.3
20260506071519 75 177 3.5 9.6 0.00 0.00 0.00 89 1006.4
20260506061513 75 188 4.3 7.8 0.00 0.00 0.00 89 1006.2
20260506044500 75 165 1.7 8.7 0.00 0.00 0.00 89 1006.3
20260506043101 76 135 2.6 6.1 0.00 0.00 0.00 88 1006.4
20260506041605 76 121 3.5 7.0 0.00 0.00 0.00 88 1006.3
20260506040058 76 173 0.9 7.0 0.00 0.00 0.00 87 1006.1
20260506034614 76 126 0.9 3.5 0.00 0.00 0.00 86 1006.0
20260506033057 77 106 1.7 4.3 0.00 0.00 0.00 85 1005.8
20260506031606 77 145 1.7 5.2 0.00 0.00 0.00 84 1005.7
20260506030056 77 144 0.0 4.3 0.00 0.00 0.00 83 1005.4
20260506024613 77 153 0.0 4.3 0.00 0.00 0.00 83 1005.2
20260506023055 78 123 0.0 3.5 0.00 0.00 0.00 82 1005.0
20260506021554 78 166 0.0 3.5 0.00 0.00 0.00 81 1004.6
20260506020053 79 133 0.0 3.5 0.00 0.00 0.00 80 1004.5
20260506014553 79 128 0.0 3.5 0.00 0.00 0.00 79 1004.4
20260506013104 80 159 0.0 5.2 0.00 0.00 0.00 77 1004.3
20260506011604 80 139 0.0 6.1 0.00 0.00 0.00 75 1004.1
20260506010055 81 152 0.9 6.1 0.00 0.00 0.00 74 1004.0
20260506004549 82 136 1.7 4.3 0.00 0.00 0.00 73 1004.0
20260506003049 82 143 2.6 7.8 0.00 0.00 0.00 73 1004.1
20260506001548 82 136 0.9 4.3 0.00 0.00 0.00 72 1004.1
20260506000050 83 136 0.9 6.1 0.00 0.00 0.00 71 1004.1
20260505234547 83 177 1.7 5.2 0.00 0.00 0.00 70 1004.1
20260505233045 83 122 4.3 8.7 0.00 0.00 0.00 69 1004.0
20260505231544 83 120 3.5 7.8 0.00 0.00 0.00 69 1003.7
20260505230055 84 183 6.1 12.2 0.00 0.00 0.00 68 1003.7
20260505224546 84 175 5.2 9.6 0.00 0.00 0.00 68 1003.5
20260505223054 84 142 5.2 10.4 0.00 0.00 0.00 68 1003.7
20260505221541 84 123 5.2 10.4 0.00 0.00 0.00 68 1003.5
20260505220042 85 219 5.2 11.3 0.00 0.00 0.00 66 1003.6
20260505214537 85 202 5.2 8.7 0.00 0.00 0.00 67 1003.7
20260505213050 85 123 6.1 10.4 0.00 0.00 0.00 66 1003.8
20260505211533 85 173 4.3 8.7 0.00 0.00 0.00 67 1004.0
20260505210032 85 142 3.5 10.4 0.00 0.00 0.00 67 1004.4
20260505204530 86 165 6.1 10.4 0.00 0.00 0.00 66 1004.5
20260505203041 86 143 4.3 7.0 0.00 0.00 0.00 66 1004.5
20260505201525 85 263 4.3 13.0 0.00 0.00 0.00 64 1004.9